Tracking 19570 objects as of 22-Feb-2019
HD Live streaming from Space Station
objects crossing your sky now

IRIDIUM 55

Track IRIDIUM 55 now!
10-day predictions
IRIDIUM 55 is classified as:


NORAD ID: 25272
Int'l Code: 1998-019A
Perigee: 768.7 km
Apogee: 771.8 km
Inclination: 86.4 °
Period: 100.1 minutes
Semi major axis: 7141 km
RCS: 4.111 m2 (large)
Launch date: March 30, 1998
Source: United States (US)
Launch site: AIR FORCE WESTERN TEST RANGE (AFWTR)
aabbcc
Your satellite tracking list
Your tracking list is empty




NASA's NSSDC Master Catalog

Two Line Element Set (TLE):
1 25272U 98019A   19053.43695492 -.00000039  00000-0 -19271-4 0  9993
2 25272  86.4216  29.8318 0002160  93.3707 266.7738 14.38607930 94481
Source of the keplerian elements: AFSPC